ONEWEB-0350, 49214

Orbit data source: Space-Track

ONEWEB-0350, 49214 is a payload satellite owned by One Web (NAA) (UK) in LEO that was launched on Tue, 14 Sep 2021 UTC via a SOYUZ-2-1B launch vehicle from the Tyuratam Missile And Space Complex (TTMTR). Payload-class satellites include a variety of spacecraft equipped with specific instruments for various scientific and technological missions. These include communications satellites like Starlink; space stations such as the ISS; scientific satellites like the Hubble; Earth observation satellites from companies like Planet Labs, Umbra, and HawkEye 360; GPS; miniature CubeSats for education and research; and military/defense satellites.

Loading next visibility...
Identifier
49214, 2021-083AE
Orbit
LEO
Country
Flag of UKUK
Related business
Manufacturer
One Web
Mission
Operational Commercial Communications
Bus & Motor
ARROW, Unknown motor
Mass
148 kg wet, ~140 kg dry
Launch date (UTC)
2021-09-14 (4 years ago)
Launch vehicle
SOYUZ-2-1B
Launch site
Tyuratam Missile And Space Complex (TTMTR)
Object type
Payload
Rocket body
Debris
Shape & HBR
Trap Box + 2 Pan, 2.5 m
Radar Cross Section
2.032 m², Medium (>0.1 m² and < 1m²)

Expand to show TLE details & history
Last TLE update: 13 hours ago

TLE from 13 hours ago
0 ONEWEB-0350
1 49214U 21083AE  25250.27328664  .00000219  00000-0  56530-3 0  9990
2 49214  87.9027  16.4225 0001877 108.4934 251.6400 13.13470662193797
Epoch: 2025-09-07T06:33Z
TLE epoch observation values (Epoch: 2025-09-07T06:33:31.965Z)
Latitude
0.00004°
Longitude
-68.55581°
Altitude
1,213.104 km
Speed
7.247 km/s
True Right ascension
01h 05m 41s
True Declination
0° 00' 00"
Sunlit
Object was in full shadow at epoch
Visualization orbit readout
Latitude
Unknown
Longitude
Unknown
Altitude
Unknown
Speed
Unknown
Apparent Right ascension
Unknown
Apparent Declination
Unknown
Sunlit
N/A
Visualization observer readout
Local Sidereal Time
11:42:51
Azimuth
Unknown
Elevation
Unknown
Doppler factor
Unknown
Orbital elements
Apogee altitude
1,208.302 km
Perigee altitude
1,205.454 km
Semi-major axis
7,585.015 km
Eccentricity
0.00019
Inclination
87.9027°
RAAN
16.4225°
Arg. of periapsis
108.4934°
True anomaly
251.61959°
Mean anomaly
251.64°
Eccentric anomaly
251.62979°
Mean motion
3.28555 °/min
Orbital period
109.57 mins
BSTAR
0.0005653
Loading maneuver chart data...
Computing Atmospheric mass density...
Loading historical data...
Loading historical data...
Loading historical data...
Loading historical data...
Loading historical data...
Loading historical data...
Loading historical data...

Documentation

Showing up to 5 results
|